LARES-2

Last updated on Thu Sep 10 2026 00:03:34 GMT+0000 (Coordinated Universal Time)

1 53105U 22080A 26252.21907213 .00000013 00000+0 00000+0 0 9990 2 53105 70.1483 276.5005 0005549 317.5287 42.5066 6.38965241 97036
UTC large
Height (km)
Speed (km/s)
/
Latitude / Longitude
Inclination (degrees)
Orbital Period (minutes)
Azimuth
Elevation
Range (km)
Doppler Factor

Next 0 passes for location: London (51.5072 / 0.1276)

No passes found over London.
LARES-2